[[{"header":{"parameterUnit":"m.s-1","parameterCategory":1,"la1":30.2991,"la2":30.254,"lo1":-89.0895,"lo2":-89.0444,"dy":0.0017,"dx":0.0017,"nx":28,"ny":28,"refTime":"2025-05-25T03:00:00:Z","depth":0,"parameterNumber":2,"parameterNumberName":"U-component_of_WINDS"},"data":[0,0,0,0,0,0,0,0,0,0,0,0,0,0,0,0,0,0,0,0,0,0,0,0,0,0,0,0,0,0,0,0,0,0,0,0,0,0,0,0,0,0,0,0,0,0,0,0,0,0,0,0,0,0,0,0,0,0,-1.3597,-1.3597,0,-1.3627,-1.3627,-1.3627,-1.3628,-1.3627,-1.3627,-1.3627,-1.3658,-1.3659,-1.366,0,0,0,0,0,0,0,0,0,0,0,0,0,-1.3542,-1.3543,-1.3597,-1.3597,-1.3597,-1.3627,-1.3627,-1.3627,-1.3628,-1.3627,-1.3627,-1.3627,-1.3658,-1.3659,-1.366,0,0,0,0,0,0,0,0,0,0,0,0,0,-1.3568,-1.3543,-1.3597,-1.3601,-1.3602,-1.3626,-1.3627,-1.3628,-1.3628,-1.3627,-1.3627,-1.3626,-1.3657,-1.3659,-1.3661,-1.3683,0,0,-1.3666,-1.3667,0,0,0,0,0,0,0,0,-1.3566,-1.357,-1.36,-1.3601,-1.3602,-1.3623,-1.3619,-1.3646,-1.3628,-1.3618,-1.3627,-1.3626,-1.3647,-1.3649,-1.3656,-1.3684,-1.3686,-1.3666,-1.3667,-1.3668,-1.3668,0,0,0,0,0,0,0,-1.3565,-1.3569,-1.3609,-1.3601,-1.3602,-1.3602,-1.3605,-1.3624,-1.3635,-1.3619,-1.3619,-1.3623,-1.3647,-1.3655,-1.3657,-1.3686,-1.3666,-1.3668,-1.3669,-1.3669,-1.3735,-1.3735,0,0,0,0,0,0,-1.3562,-1.3567,-1.3608,-1.3609,-1.3582,-1.3604,-1.3607,-1.3617,-1.3635,-1.3637,-1.3623,-1.3622,-1.3652,-1.3655,-1.3658,-1.3685,-1.3668,-1.367,-1.3671,-1.3734,-1.3735,-1.3735,0,0,0,0,0,0,-1.3561,-1.3565,-1.3606,-1.3588,-1.3594,-1.3605,-1.3616,-1.3618,-1.3625,-1.3638,-1.364,-1.3628,-1.3651,-1.3656,-1.3677,-1.3686,-1.367,-1.3672,-1.3733,-1.3734,-1.3735,-1.374,0,0,0,0,0,0,-1.3559,-1.3565,-1.3573,-1.3589,-1.3595,-1.3624,-1.3617,-1.3619,-1.3628,-1.3627,-1.3644,-1.3646,-1.3651,-1.3674,-1.3678,-1.3688,-1.3673,-1.3732,-1.3734,-1.3735,-1.3739,-1.3741,-1.3742,0,0,0,0,0,-1.3557,-1.3573,-1.3573,-1.3578,-1.3605,-1.3625,-1.3628,-1.3634,-1.3629,-1.3637,-1.3646,-1.3645,-1.3685,-1.3676,-1.3681,-1.3692,-1.3732,-1.3733,-1.3735,-1.3738,-1.374,-1.3742,0,0,0,0,0,0,-1.3558,-1.3575,-1.3576,-1.3597,-1.3609,-1.3625,-1.3635,-1.3636,-1.365,-1.3649,-1.3656,-1.366,-1.3681,-1.3689,-1.3679,-1.3715,-1.3708,-1.371,-1.3708,-1.3711,-1.3713,-1.371,-1.3675,0,0,0,0,0,-1.3561,-1.3575,-1.359,-1.3607,-1.3613,-1.3623,-1.3632,-1.3636,-1.3649,-1.3654,-1.3664,-1.3677,-1.3693,-1.3702,-1.3717,-1.3741,-1.3744,-1.375,-1.3752,-1.3754,-1.3756,-1.3769,-1.3772,-1.374,-1.374,-1.374,0,0,-1.3567,-1.3578,-1.3586,-1.3608,-1.3618,-1.3633,-1.3628,-1.3644,-1.3655,-1.3656,-1.3677,-1.3685,-1.37,-1.3722,-1.3733,-1.3729,-1.3765,-1.3756,-1.3757,-1.3758,-1.3771,-1.3773,-1.3776,-1.3741,-1.3741,-1.3741,0,0,-1.3585,-1.3595,-1.3611,-1.3621,-1.3636,-1.3643,-1.3647,-1.3662,-1.3668,-1.3688,-1.369,-1.3704,-1.373,-1.3741,-1.375,-1.3774,-1.3774,-1.3779,-1.3788,-1.3801,-1.3803,-1.3805,-1.3813,-1.3816,-1.3781,-1.3781,-1.3781,0,-1.359,-1.3612,-1.3619,-1.3635,-1.3644,-1.3647,-1.3663,-1.3673,-1.3692,-1.3699,-1.3696,-1.3729,-1.3739,-1.3764,-1.377,-1.3778,-1.3782,-1.3776,-1.3802,-1.3804,-1.3807,-1.3814,-1.3817,-1.3781,-1.3781,-1.3781,-1.3781,0,-1.3618,-1.3634,-1.3645,-1.3663,-1.3674,-1.369,-1.37,-1.371,-1.3713,-1.3721,-1.3742,-1.3755,-1.3773,-1.3779,-1.3782,-1.3805,-1.3803,-1.3801,-1.3793,-1.381,-1.3817,-1.382,-1.3782,-1.3781,-1.3781,-1.3781,0,0,-1.3636,-1.3659,-1.3663,-1.3671,-1.3689,-1.3701,-1.3718,-1.3735,-1.3744,-1.3758,-1.3772,-1.3795,-1.3794,-1.3804,-1.3809,-1.382,-1.3838,-1.3817,-1.3817,-1.382,-1.3864,-1.3864,-1.3868,-1.3839,-1.3839,-1.384,-1.3862,0,-1.3656,-1.3685,-1.3692,-1.3717,-1.3731,-1.3735,-1.3749,-1.3762,-1.377,-1.3784,-1.3793,-1.3809,-1.3806,-1.3812,-1.3824,-1.3833,-1.3847,-1.3832,-1.3852,-1.3853,-1.3847,-1.3872,-1.3872,-1.3892,-1.3865,-1.3866,-1.3866,0,-1.3682,-1.3696,-1.3722,-1.3738,-1.3745,-1.3758,-1.3774,-1.3788,-1.3803,-1.3808,-1.382,-1.3824,-1.3842,-1.3835,-1.3861,-1.385,-1.386,-1.3866,-1.3867,-1.3868,-1.3859,-1.3873,-1.3899,-1.3902,-1.3871,-1.387,-1.387,0,-1.3692,-1.3718,-1.3737,-1.3744,-1.3764,-1.3773,-1.3781,-1.3796,-1.3806,-1.3821,-1.3828,-1.3845,-1.3854,-1.3868,-1.3876,-1.3871,-1.3901,-1.3895,-1.3906,-1.3906,-1.3911,-1.391,-1.3938,-1.3919,-1.3919,-1.3919,-1.3918,0,-1.3712,-1.3728,-1.3741,-1.3753,-1.3771,-1.378,-1.3798,-1.3807,-1.382,-1.3834,-1.3839,-1.3852,-1.3863,-1.3878,-1.3885,-1.3905,-1.3909,-1.3914,-1.3916,-1.3913,-1.3912,-1.3918,-1.3916,-1.3919,-1.3919,-1.3919,-1.3919,0,-1.3726,-1.3735,-1.3756,-1.3773,-1.3778,-1.3791,-1.3805,-1.3817,-1.3826,-1.3844,-1.3848,-1.3862,-1.388,-1.389,-1.3913,-1.3918,-1.394,-1.3941,-1.3934,-1.3935,-1.3945,-1.3943,-1.3977,-1.3981,-1.3959,-1.3959,-1.396,0,-1.3737,-1.375,-1.3768,-1.3777,-1.3786,-1.3801,-1.3812,-1.3821,-1.3832,-1.3851,-1.386,-1.3879,-1.3893,-1.3922,-1.3934,-1.3952,-1.3953,-1.3964,-1.3956,-1.3953,-1.3953,-1.3951,-1.3953,-1.3965,-1.3965,-1.3965,-1.3965,0,-1.3757,-1.3762,-1.3776,-1.3793,-1.3805,-1.3818,-1.3832,-1.384,-1.3852,-1.3864,-1.3882,-1.3894,-1.3917,-1.3935,-1.3954,-1.3964,-1.3966,-1.3968,-1.3971,-1.3968,-1.3963,-1.3965,-1.3937,-1.3967,-1.3966,-1.3966,-1.3966,-1.3966,-1.377,-1.3781,-1.3796,-1.3812,-1.3823,-1.3836,-1.3848,-1.3858,-1.3873,-1.3892,-1.3898,-1.3917,-1.3933,-1.3958,-1.3968,-1.3984,-1.3982,-1.3987,-1.3988,-1.3989,-1.3989,-1.3962,-1.3988,-1.3988,-1.3988,-1.3988,-1.3988,0,-1.3789,-1.3799,-1.3814,-1.3833,-1.3846,-1.3848,-1.3863,-1.3874,-1.389,-1.3905,-1.3919,-1.3941,-1.3959,-1.3973,-1.3991,-1.4001,-1.4003,-1.4006,-1.4004,-1.4007,-1.399,-1.3985,-1.4004,-1.4004,-1.4004,-1.4004,-1.4004,-1.4004,-1.3801,-1.382,-1.3826,-1.3851,-1.3861,-1.3879,-1.3888,-1.39,-1.3911,-1.3935,-1.3949,-1.3958,-1.3973,-1.3993,-1.401,-1.4013,-1.402,-1.4022,-1.4026,-1.401,-1.4008,-1.4006,-1.4001,-1.4023,-1.4024,-1.4041,-1.4042,-1.4042]},{"header":{"parameterUnit":"m.s-1","parameterCategory":1,"la1":30.2991,"la2":30.254,"lo1":-89.0895,"lo2":-89.0444,"dy":0.0017,"dx":0.0017,"nx":28,"ny":28,"refTime":"2025-05-25T03:00:00:Z","depth":0,"parameterNumber":3,"parameterNumberName":"V-component_of_WINDS"},"data":[0,0,0,0,0,0,0,0,0,0,0,0,0,0,0,0,0,0,0,0,0,0,0,0,0,0,0,0,0,0,0,0,0,0,0,0,0,0,0,0,0,0,0,0,0,0,0,0,0,0,0,0,0,0,0,0,0,0,3.4145,3.4145,0,3.4214,3.4215,3.4216,3.4276,3.4277,3.4278,3.4278,3.4344,3.4345,3.4346,0,0,0,0,0,0,0,0,0,0,0,0,0,3.406,3.4061,3.4145,3.4146,3.4146,3.4214,3.4215,3.4216,3.4276,3.4277,3.4278,3.4279,3.4344,3.4345,3.4346,0,0,0,0,0,0,0,0,0,0,0,0,0,3.411,3.4062,3.4144,3.4185,3.4189,3.4214,3.4215,3.4216,3.4276,3.4277,3.4278,3.4279,3.4343,3.4345,3.4346,3.4335,0,0,3.4352,3.4352,0,0,0,0,0,0,0,0,3.4107,3.4113,3.4178,3.4182,3.4187,3.4238,3.4209,3.4256,3.4276,3.4243,3.4278,3.4279,3.4307,3.4312,3.4323,3.4338,3.4341,3.4352,3.4353,3.4353,3.4354,0,0,0,0,0,0,0,3.4103,3.411,3.4172,3.4179,3.4184,3.4198,3.4206,3.4218,3.4268,3.4246,3.425,3.4258,3.431,3.4321,3.4325,3.4342,3.4352,3.4353,3.4354,3.4355,3.4354,3.4353,0,0,0,0,0,0,3.4094,3.4107,3.417,3.4174,3.4149,3.4199,3.4208,3.422,3.4268,3.4277,3.4257,3.426,3.4318,3.4323,3.4327,3.4319,3.4353,3.4355,3.4356,3.4355,3.4353,3.4352,0,0,0,0,0,0,3.4092,3.4099,3.4167,3.4142,3.4151,3.4199,3.4212,3.4221,3.4232,3.4277,3.4285,3.4259,3.4319,3.4325,3.4334,3.4322,3.4356,3.4357,3.4356,3.4354,3.4353,3.43,0,0,0,0,0,0,3.409,3.4098,3.4095,3.4141,3.4153,3.4173,3.4212,3.4222,3.4235,3.4241,3.4281,3.4289,3.432,3.4331,3.4335,3.4324,3.4358,3.4357,3.4355,3.4353,3.4303,3.4297,3.4292,0,0,0,0,0,3.4086,3.4076,3.4095,3.4102,3.415,3.4172,3.4179,3.4216,3.4234,3.4231,3.426,3.4288,3.4322,3.4331,3.4337,3.4326,3.4358,3.4356,3.4354,3.4306,3.4298,3.4292,0,0,0,0,0,0,3.4026,3.4083,3.4104,3.4109,3.4136,3.4183,3.418,3.4207,3.4227,3.4231,3.4275,3.4284,3.4288,3.4308,3.4317,3.4318,3.4344,3.4342,3.4305,3.4299,3.4293,3.4288,3.436,0,0,0,0,0,3.4013,3.4028,3.4077,3.4076,3.4089,3.4132,3.4143,3.417,3.4198,3.4209,3.4239,3.4264,3.4281,3.4291,3.4308,3.4306,3.4316,3.4302,3.4296,3.4291,3.4289,3.429,3.4285,3.4345,3.4345,3.4345,0,0,3.3987,3.402,3.4026,3.4065,3.4089,3.4102,3.4141,3.4153,3.4163,3.421,3.4222,3.4244,3.4275,3.4278,3.4281,3.4295,3.4275,3.4288,3.4284,3.4285,3.4288,3.4282,3.4277,3.4343,3.4344,3.4344,0,0,3.3946,3.3972,3.3976,3.3999,3.4036,3.4065,3.4065,3.4109,3.4126,3.4138,3.4175,3.4186,3.4214,3.4235,3.4249,3.4218,3.4244,3.4222,3.4192,3.4193,3.4188,3.4184,3.4174,3.4169,3.422,3.422,3.422,0,3.3908,3.3931,3.3973,3.3984,3.4,3.4046,3.4049,3.4069,3.4108,3.4118,3.4133,3.417,3.4194,3.4204,3.4196,3.4206,3.4208,3.4218,3.4186,3.4182,3.4179,3.4169,3.4165,3.4217,3.4218,3.4218,3.4218,0,3.3883,3.3899,3.3897,3.3936,3.3952,3.3958,3.4,3.4011,3.4036,3.4063,3.4075,3.4106,3.4131,3.4135,3.4159,3.4148,3.4156,3.4178,3.4204,3.417,3.4162,3.4158,3.4213,3.4214,3.4215,3.4216,0,0,3.3806,3.387,3.3868,3.3888,3.3931,3.3943,3.3952,3.3979,3.3987,3.4012,3.4021,3.4044,3.4065,3.4081,3.4107,3.4108,3.4082,3.413,3.4131,3.4121,3.4073,3.4057,3.4052,3.41,3.4099,3.4099,3.4071,0,3.3773,3.3793,3.3832,3.3839,3.3854,3.3898,3.3905,3.3932,3.3958,3.3973,3.4001,3.4017,3.4043,3.4053,3.4056,3.4085,3.4073,3.4087,3.4107,3.4107,3.4099,3.4048,3.403,3.4002,3.4067,3.4067,3.4067,0,3.3737,3.3763,3.3772,3.3816,3.3824,3.383,3.3858,3.3873,3.3904,3.3923,3.3941,3.3972,3.3982,3.4006,3.4021,3.403,3.404,3.4056,3.4055,3.4059,3.4085,3.405,3.3994,3.399,3.4062,3.4062,3.4062,0,3.3681,3.3717,3.3728,3.3742,3.3794,3.3798,3.3819,3.3852,3.3866,3.389,3.3899,3.3923,3.3936,3.3954,3.3989,3.4003,3.4,3.4027,3.4016,3.4015,3.4014,3.4013,3.3959,3.4019,3.4019,3.4019,3.4019,0,3.364,3.3644,3.3704,3.371,3.3716,3.376,3.3764,3.3789,3.3818,3.383,3.3868,3.3878,3.3924,3.3939,3.3966,3.3975,3.398,3.3995,3.4002,3.3992,3.399,3.4,3.4003,3.4018,3.4018,3.4018,3.4018,0,3.3578,3.3618,3.3633,3.3682,3.3694,3.3696,3.3737,3.3744,3.3773,3.3787,3.3793,3.3836,3.3856,3.3893,3.3922,3.3941,3.3944,3.3956,3.3934,3.3939,3.3926,3.3926,3.3876,3.3872,3.3933,3.3932,3.3932,0,3.355,3.3555,3.3605,3.3616,3.3637,3.3654,3.367,3.3713,3.3727,3.3763,3.3766,3.3789,3.381,3.3839,3.3873,3.3895,3.3909,3.389,3.3913,3.3903,3.391,3.391,3.3911,3.3885,3.3884,3.3883,3.3883,0,3.3497,3.3517,3.3538,3.3567,3.3584,3.3608,3.3634,3.3641,3.3689,3.3703,3.3725,3.3741,3.3772,3.3794,3.3822,3.3843,3.387,3.3875,3.3874,3.3864,3.3851,3.3859,3.3921,3.3876,3.3877,3.3877,3.3878,3.3878,3.3452,3.3459,3.3495,3.3518,3.3542,3.3566,3.3576,3.3606,3.3626,3.3656,3.3679,3.3699,3.3731,3.3772,3.3791,3.3806,3.3819,3.3817,3.3817,3.3816,3.3812,3.3848,3.3811,3.3811,3.3811,3.3812,3.3812,0,3.3401,3.3427,3.3448,3.3484,3.3502,3.3528,3.3558,3.3571,3.3589,3.3617,3.3637,3.3662,3.3684,3.372,3.3745,3.375,3.3764,3.3755,3.3756,3.376,3.3798,3.3797,3.3744,3.3744,3.3744,3.3744,3.3744,3.3744,3.3377,3.339,3.3414,3.344,3.3466,3.3487,3.3502,3.3524,3.3547,3.3574,3.3593,3.3617,3.3648,3.3676,3.3697,3.3707,3.3714,3.3702,3.3716,3.3751,3.3757,3.3763,3.3763,3.3703,3.3703,3.3677,3.3677,3.3676]}]]